Year,Month,Day,Hour,Minute,Value (Times are PST for barometer in hPa)
2019,02,15,00,00,990.17
2019,02,15,00,01,990.18
2019,02,15,00,02,990.18
2019,02,15,00,03,990.18
2019,02,15,00,04,990.18
2019,02,15,00,05,990.18
2019,02,15,00,06,990.18
2019,02,15,00,07,990.18
2019,02,15,00,08,990.18
2019,02,15,00,09,990.18
2019,02,15,00,10,990.18
2019,02,15,00,11,990.18
2019,02,15,00,12,990.18
2019,02,15,00,13,990.18
2019,02,15,00,14,990.18
2019,02,15,00,15,990.45
2019,02,15,00,16,990.45
2019,02,15,00,17,990.45
2019,02,15,00,18,990.45
2019,02,15,00,19,990.45
2019,02,15,00,20,990.45
2019,02,15,00,21,990.45
2019,02,15,00,22,990.45
2019,02,15,00,23,990.45
2019,02,15,00,24,990.45
2019,02,15,00,25,990.45
2019,02,15,00,26,990.45
2019,02,15,00,27,990.45
2019,02,15,00,28,990.45
2019,02,15,00,29,990.45
2019,02,15,00,30,990.69
2019,02,15,00,31,990.69
2019,02,15,00,32,990.69
2019,02,15,00,33,990.69
2019,02,15,00,34,990.69
2019,02,15,00,35,990.69
2019,02,15,00,36,990.69
2019,02,15,00,37,990.69
2019,02,15,00,38,990.69
2019,02,15,00,39,990.69
2019,02,15,00,40,990.69
2019,02,15,00,41,990.69
2019,02,15,00,42,990.69
2019,02,15,00,43,990.69
2019,02,15,00,44,990.69
2019,02,15,00,45,990.97
2019,02,15,00,46,990.99
2019,02,15,00,47,990.99
2019,02,15,00,48,990.99
2019,02,15,00,49,990.99
2019,02,15,00,50,990.99
2019,02,15,00,51,990.99
2019,02,15,00,52,990.99
2019,02,15,00,53,990.99
2019,02,15,00,54,990.99
2019,02,15,00,55,990.99
2019,02,15,00,56,990.99
2019,02,15,00,57,990.99
2019,02,15,00,58,990.99
2019,02,15,00,59,990.99
2019,02,15,01,00,991.12
2019,02,15,01,01,991.13
2019,02,15,01,02,991.13
2019,02,15,01,03,991.13
2019,02,15,01,04,991.13
2019,02,15,01,05,991.13
2019,02,15,01,06,991.13
2019,02,15,01,07,991.13
2019,02,15,01,08,991.13
2019,02,15,01,09,991.13
2019,02,15,01,10,991.13
2019,02,15,01,11,991.13
2019,02,15,01,12,991.13
2019,02,15,01,13,991.13
2019,02,15,01,14,991.13
2019,02,15,01,15,991.16
2019,02,15,01,16,991.16
2019,02,15,01,17,991.16
2019,02,15,01,18,991.16
2019,02,15,01,19,991.16
2019,02,15,01,20,991.16
2019,02,15,01,21,991.16
2019,02,15,01,22,991.16
2019,02,15,01,23,991.16
2019,02,15,01,24,991.16
2019,02,15,01,25,991.16
2019,02,15,01,26,991.16
2019,02,15,01,27,991.16
2019,02,15,01,28,991.16
2019,02,15,01,29,991.16
2019,02,15,01,30,991.30
2019,02,15,01,31,991.30
2019,02,15,01,32,991.30
2019,02,15,01,33,991.30
2019,02,15,01,34,991.30
2019,02,15,01,35,991.30
2019,02,15,01,36,991.30
2019,02,15,01,37,991.30
2019,02,15,01,38,991.30
2019,02,15,01,39,991.30
2019,02,15,01,40,991.30
2019,02,15,01,41,991.30
2019,02,15,01,42,991.30
2019,02,15,01,43,991.30
2019,02,15,01,44,991.30
2019,02,15,01,45,991.67
2019,02,15,01,46,991.67
2019,02,15,01,47,991.67
2019,02,15,01,48,991.67
2019,02,15,01,49,991.67
2019,02,15,01,50,991.67
2019,02,15,01,51,991.67
2019,02,15,01,52,991.67
2019,02,15,01,53,991.67
2019,02,15,01,54,991.67
2019,02,15,01,55,991.67
2019,02,15,01,56,991.67
2019,02,15,01,57,991.67
2019,02,15,01,58,991.67
2019,02,15,01,59,991.67
2019,02,15,02,00,991.70
2019,02,15,02,01,991.70
2019,02,15,02,02,991.70
2019,02,15,02,03,991.70
2019,02,15,02,04,991.70
2019,02,15,02,05,991.70
2019,02,15,02,06,991.70
2019,02,15,02,07,991.70
2019,02,15,02,08,991.70
2019,02,15,02,09,991.70
2019,02,15,02,10,991.70
2019,02,15,02,11,991.70
2019,02,15,02,12,991.70
2019,02,15,02,13,991.70
2019,02,15,02,14,991.70
2019,02,15,02,15,991.74
2019,02,15,02,16,991.74
2019,02,15,02,17,991.74
2019,02,15,02,18,991.74
2019,02,15,02,19,991.74
2019,02,15,02,20,991.74
2019,02,15,02,21,991.74
2019,02,15,02,22,991.74
2019,02,15,02,23,991.74
2019,02,15,02,24,991.74
2019,02,15,02,25,991.74
2019,02,15,02,26,991.74
2019,02,15,02,27,991.74
2019,02,15,02,28,991.74
2019,02,15,02,29,991.74
2019,02,15,02,30,991.74
2019,02,15,02,31,991.74
2019,02,15,02,32,991.74
2019,02,15,02,33,991.74
2019,02,15,02,34,991.74
2019,02,15,02,35,991.74
2019,02,15,02,36,991.74
2019,02,15,02,37,991.74
2019,02,15,02,38,991.74
2019,02,15,02,39,991.74
2019,02,15,02,40,991.74
2019,02,15,02,41,991.74
2019,02,15,02,42,991.74
2019,02,15,02,43,991.74
2019,02,15,02,44,991.74
2019,02,15,02,45,992.16
2019,02,15,02,46,992.18
2019,02,15,02,47,992.18
2019,02,15,02,48,992.18
2019,02,15,02,49,992.18
2019,02,15,02,50,992.18
2019,02,15,02,51,992.18
2019,02,15,02,52,992.18
2019,02,15,02,53,992.18
2019,02,15,02,54,992.18
2019,02,15,02,55,992.18
2019,02,15,02,56,992.18
2019,02,15,02,57,992.18
2019,02,15,02,58,992.18
2019,02,15,02,59,992.18
2019,02,15,03,00,992.21
2019,02,15,03,01,992.21
2019,02,15,03,02,992.21
2019,02,15,03,03,992.21
2019,02,15,03,04,992.21
2019,02,15,03,05,992.21
2019,02,15,03,06,992.21
2019,02,15,03,07,992.21
2019,02,15,03,08,992.21
2019,02,15,03,09,992.21
2019,02,15,03,10,992.21
2019,02,15,03,11,992.21
2019,02,15,03,12,992.21
2019,02,15,03,13,992.21
2019,02,15,03,14,992.21
2019,02,15,03,15,992.34
2019,02,15,03,16,992.35
2019,02,15,03,17,992.35
2019,02,15,03,18,992.35
2019,02,15,03,19,992.35
2019,02,15,03,20,992.35
2019,02,15,03,21,992.35
2019,02,15,03,22,992.35
2019,02,15,03,23,992.35
2019,02,15,03,24,992.35
2019,02,15,03,25,992.35
2019,02,15,03,26,992.35
2019,02,15,03,27,992.35
2019,02,15,03,28,992.35
2019,02,15,03,29,992.35
2019,02,15,03,30,992.42
2019,02,15,03,31,992.42
2019,02,15,03,32,992.42
2019,02,15,03,33,992.42
2019,02,15,03,34,992.42
2019,02,15,03,35,992.42
2019,02,15,03,36,992.42
2019,02,15,03,37,992.42
2019,02,15,03,38,992.42
2019,02,15,03,39,992.42
2019,02,15,03,40,992.42
2019,02,15,03,41,992.42
2019,02,15,03,42,992.42
2019,02,15,03,43,992.42
2019,02,15,03,44,992.42
2019,02,15,03,45,992.64
2019,02,15,03,46,992.65
2019,02,15,03,47,992.65
2019,02,15,03,48,992.65
2019,02,15,03,49,992.65
2019,02,15,03,50,992.65
2019,02,15,03,51,992.65
2019,02,15,03,52,992.65
2019,02,15,03,53,992.65
2019,02,15,03,54,992.65
2019,02,15,03,55,992.65
2019,02,15,03,56,992.65
2019,02,15,03,57,992.65
2019,02,15,03,58,992.65
2019,02,15,03,59,992.65
2019,02,15,04,00,992.53
2019,02,15,04,01,992.52
2019,02,15,04,02,992.52
2019,02,15,04,03,992.52
2019,02,15,04,04,992.52
2019,02,15,04,05,992.52
2019,02,15,04,06,992.52
2019,02,15,04,07,992.52
2019,02,15,04,08,992.52
2019,02,15,04,09,992.52
2019,02,15,04,10,992.52
2019,02,15,04,11,992.52
2019,02,15,04,12,992.52
2019,02,15,04,13,992.52
2019,02,15,04,14,992.52
2019,02,15,04,15,992.72
2019,02,15,04,16,992.72
2019,02,15,04,17,992.72
2019,02,15,04,18,992.72
2019,02,15,04,19,992.72
2019,02,15,04,20,992.72
2019,02,15,04,21,992.72
2019,02,15,04,22,992.72
2019,02,15,04,23,992.72
2019,02,15,04,24,992.72
2019,02,15,04,25,992.72
2019,02,15,04,26,992.72
2019,02,15,04,27,992.72
2019,02,15,04,28,992.72
2019,02,15,04,29,992.72
2019,02,15,04,30,992.75
2019,02,15,04,31,992.75
2019,02,15,04,32,992.75
2019,02,15,04,33,992.75
2019,02,15,04,34,992.75
2019,02,15,04,35,992.75
2019,02,15,04,36,992.75
2019,02,15,04,37,992.75
2019,02,15,04,38,992.75
2019,02,15,04,39,992.75
2019,02,15,04,40,992.75
2019,02,15,04,41,992.75
2019,02,15,04,42,992.75
2019,02,15,04,43,992.75
2019,02,15,04,44,992.75
2019,02,15,04,45,992.89
2019,02,15,04,46,992.89
2019,02,15,04,47,992.89
2019,02,15,04,48,992.89
2019,02,15,04,49,992.89
2019,02,15,04,50,992.89
2019,02,15,04,51,992.89
2019,02,15,04,52,992.89
2019,02,15,04,53,992.89
2019,02,15,04,54,992.89
2019,02,15,04,55,992.89
2019,02,15,04,56,992.89
2019,02,15,04,57,992.89
2019,02,15,04,58,992.89
2019,02,15,04,59,992.89
2019,02,15,05,00,993.05
2019,02,15,05,01,993.06
2019,02,15,05,02,993.06
2019,02,15,05,03,993.06
2019,02,15,05,04,993.06
2019,02,15,05,05,993.06
2019,02,15,05,06,993.06
2019,02,15,05,07,993.06
2019,02,15,05,08,993.06
2019,02,15,05,09,993.06
2019,02,15,05,10,993.06
2019,02,15,05,11,993.06
2019,02,15,05,12,993.06
2019,02,15,05,13,993.06
2019,02,15,05,14,993.06
2019,02,15,05,15,993.29
2019,02,15,05,16,993.30
2019,02,15,05,17,993.30
2019,02,15,05,18,993.30
2019,02,15,05,19,993.30
2019,02,15,05,20,993.30
2019,02,15,05,21,993.30
2019,02,15,05,22,993.30
2019,02,15,05,23,993.30
2019,02,15,05,24,993.30
2019,02,15,05,25,993.30
2019,02,15,05,26,993.30
2019,02,15,05,27,993.30
2019,02,15,05,28,993.30
2019,02,15,05,29,993.30
2019,02,15,05,30,993.26
2019,02,15,05,31,993.26
2019,02,15,05,32,993.26
2019,02,15,05,33,993.26
2019,02,15,05,34,993.26
2019,02,15,05,35,993.26
2019,02,15,05,36,993.26
2019,02,15,05,37,993.26
2019,02,15,05,38,993.26
2019,02,15,05,39,993.26
2019,02,15,05,40,993.26
2019,02,15,05,41,993.26
2019,02,15,05,42,993.26
2019,02,15,05,43,993.26
2019,02,15,05,44,993.26
2019,02,15,05,45,993.46
2019,02,15,05,46,993.47
2019,02,15,05,47,993.47
2019,02,15,05,48,993.47
2019,02,15,05,49,993.47
2019,02,15,05,50,993.47
2019,02,15,05,51,993.47
2019,02,15,05,52,993.47
2019,02,15,05,53,993.47
2019,02,15,05,54,993.47
2019,02,15,05,55,993.47
2019,02,15,05,56,993.47
2019,02,15,05,57,993.47
2019,02,15,05,58,993.47
2019,02,15,05,59,993.47
2019,02,15,06,00,993.53
2019,02,15,06,01,993.53
2019,02,15,06,02,993.53
2019,02,15,06,03,993.53
2019,02,15,06,04,993.53
2019,02,15,06,05,993.53
2019,02,15,06,06,993.53
2019,02,15,06,07,993.53
2019,02,15,06,08,993.53
2019,02,15,06,09,993.53
2019,02,15,06,10,993.53
2019,02,15,06,11,993.53
2019,02,15,06,12,993.53
2019,02,15,06,13,993.53
2019,02,15,06,14,993.53
2019,02,15,06,15,993.62
2019,02,15,06,16,993.63
2019,02,15,06,17,993.63
2019,02,15,06,18,993.63
2019,02,15,06,19,993.63
2019,02,15,06,20,993.63
2019,02,15,06,21,993.63
2019,02,15,06,22,993.63
2019,02,15,06,23,993.63
2019,02,15,06,24,993.63
2019,02,15,06,25,993.63
2019,02,15,06,26,993.63
2019,02,15,06,27,993.63
2019,02,15,06,28,993.63
2019,02,15,06,29,993.63
2019,02,15,06,30,993.79
2019,02,15,06,31,993.80
2019,02,15,06,32,993.80
2019,02,15,06,33,993.80
2019,02,15,06,34,993.80
2019,02,15,06,35,993.80
2019,02,15,06,36,993.80
2019,02,15,06,37,993.80
2019,02,15,06,38,993.80
2019,02,15,06,39,993.80
2019,02,15,06,40,993.80
2019,02,15,06,41,993.80
2019,02,15,06,42,993.80
2019,02,15,06,43,993.80
2019,02,15,06,44,993.80
2019,02,15,06,45,993.87
2019,02,15,06,46,993.87
2019,02,15,06,47,993.87
2019,02,15,06,48,993.87
2019,02,15,06,49,993.87
2019,02,15,06,50,993.87
2019,02,15,06,51,993.87
2019,02,15,06,52,993.87
2019,02,15,06,53,993.87
2019,02,15,06,54,993.87
2019,02,15,06,55,993.87
2019,02,15,06,56,993.87
2019,02,15,06,57,993.87
2019,02,15,06,58,993.87
2019,02,15,06,59,993.87
2019,02,15,07,00,994.19
2019,02,15,07,01,994.21
2019,02,15,07,02,994.21
2019,02,15,07,03,994.21
2019,02,15,07,04,994.21
2019,02,15,07,05,994.21
2019,02,15,07,06,994.21
2019,02,15,07,07,994.21
2019,02,15,07,08,994.21
2019,02,15,07,09,994.21
2019,02,15,07,10,994.21
2019,02,15,07,11,994.21
2019,02,15,07,12,994.21
2019,02,15,07,13,994.21
2019,02,15,07,14,994.21
2019,02,15,07,15,994.34
2019,02,15,07,16,994.35
2019,02,15,07,17,994.35
2019,02,15,07,18,994.35
2019,02,15,07,19,994.35
2019,02,15,07,20,994.35
2019,02,15,07,21,994.35
2019,02,15,07,22,994.35
2019,02,15,07,23,994.35
2019,02,15,07,24,994.35
2019,02,15,07,25,994.35
2019,02,15,07,26,994.35
2019,02,15,07,27,994.35
2019,02,15,07,28,994.35
2019,02,15,07,29,994.35
2019,02,15,07,30,994.54
2019,02,15,07,31,994.55
2019,02,15,07,32,994.55
2019,02,15,07,33,994.55
2019,02,15,07,34,994.55
2019,02,15,07,35,994.55
2019,02,15,07,36,994.55
2019,02,15,07,37,994.55
2019,02,15,07,38,994.55
2019,02,15,07,39,994.55
2019,02,15,07,40,994.55
2019,02,15,07,41,994.55
2019,02,15,07,42,994.55
2019,02,15,07,43,994.55
2019,02,15,07,44,994.55
2019,02,15,07,45,994.87
2019,02,15,07,46,994.89
2019,02,15,07,47,994.89
2019,02,15,07,48,994.89
2019,02,15,07,49,994.89
2019,02,15,07,50,994.89
2019,02,15,07,51,994.89
2019,02,15,07,52,994.89
2019,02,15,07,53,994.89
2019,02,15,07,54,994.89
2019,02,15,07,55,994.89
2019,02,15,07,56,994.89
2019,02,15,07,57,994.89
2019,02,15,07,58,994.89
2019,02,15,07,59,994.89
2019,02,15,08,00,995.15
2019,02,15,08,01,995.16
2019,02,15,08,02,995.16
2019,02,15,08,03,995.16
2019,02,15,08,04,995.16
2019,02,15,08,05,995.16
2019,02,15,08,06,995.16
2019,02,15,08,07,995.16
2019,02,15,08,08,995.16
2019,02,15,08,09,995.16
2019,02,15,08,10,995.16
2019,02,15,08,11,995.16
2019,02,15,08,12,995.16
2019,02,15,08,13,995.16
2019,02,15,08,14,995.16
2019,02,15,08,15,995.58
2019,02,15,08,16,995.60
2019,02,15,08,17,995.60
2019,02,15,08,18,995.60
2019,02,15,08,19,995.60
2019,02,15,08,20,995.60
2019,02,15,08,21,995.60
2019,02,15,08,22,995.60
2019,02,15,08,23,995.60
2019,02,15,08,24,995.60
2019,02,15,08,25,995.60
2019,02,15,08,26,995.60
2019,02,15,08,27,995.60
2019,02,15,08,28,995.60
2019,02,15,08,29,995.60
2019,02,15,08,30,995.92
2019,02,15,08,31,995.94
2019,02,15,08,32,995.94
2019,02,15,08,33,995.94
2019,02,15,08,34,995.94
2019,02,15,08,35,995.94
2019,02,15,08,36,995.94
2019,02,15,08,37,995.94
2019,02,15,08,38,995.94
2019,02,15,08,39,995.94
2019,02,15,08,40,995.94
2019,02,15,08,41,995.94
2019,02,15,08,42,995.94
2019,02,15,08,43,995.94
2019,02,15,08,44,995.94
2019,02,15,08,45,996.13
2019,02,15,08,46,996.14
2019,02,15,08,47,996.14
2019,02,15,08,48,996.14
2019,02,15,08,49,996.14
2019,02,15,08,50,996.14
2019,02,15,08,51,996.14
2019,02,15,08,52,996.14
2019,02,15,08,53,996.14
2019,02,15,08,54,996.14
2019,02,15,08,55,996.14
2019,02,15,08,56,996.14
2019,02,15,08,57,996.14
2019,02,15,08,58,996.14
2019,02,15,08,59,996.14
2019,02,15,09,00,996.40
2019,02,15,09,01,996.41
2019,02,15,09,02,996.41
2019,02,15,09,03,996.41
2019,02,15,09,04,996.41
2019,02,15,09,05,996.41
2019,02,15,09,06,996.41
2019,02,15,09,07,996.41
2019,02,15,09,08,996.41
2019,02,15,09,09,996.41
2019,02,15,09,10,996.41
2019,02,15,09,11,996.41
2019,02,15,09,12,996.41
2019,02,15,09,13,996.41
2019,02,15,09,14,996.41
2019,02,15,09,15,996.72
2019,02,15,09,16,996.75
2019,02,15,09,17,996.75
2019,02,15,09,18,996.75
2019,02,15,09,19,996.75
2019,02,15,09,20,996.75
2019,02,15,09,21,996.75
2019,02,15,09,22,996.75
2019,02,15,09,23,996.75
2019,02,15,09,24,996.75
2019,02,15,09,25,996.75
2019,02,15,09,26,996.75
2019,02,15,09,27,996.75
2019,02,15,09,28,996.75
2019,02,15,09,29,996.75
2019,02,15,09,30,996.94
2019,02,15,09,31,996.95
2019,02,15,09,32,996.95
2019,02,15,09,33,996.95
2019,02,15,09,34,996.95
2019,02,15,09,35,996.95
2019,02,15,09,36,996.95
2019,02,15,09,37,996.95
2019,02,15,09,38,996.95
2019,02,15,09,39,996.95
2019,02,15,09,40,996.95
2019,02,15,09,41,996.95
2019,02,15,09,42,996.95
2019,02,15,09,43,996.95
2019,02,15,09,44,996.95
2019,02,15,09,45,997.04
2019,02,15,09,46,997.05
2019,02,15,09,47,997.05
2019,02,15,09,48,997.05
2019,02,15,09,49,997.05
2019,02,15,09,50,997.05
2019,02,15,09,51,997.05
2019,02,15,09,52,997.05
2019,02,15,09,53,997.05
2019,02,15,09,54,997.05
2019,02,15,09,55,997.05
2019,02,15,09,56,997.05
2019,02,15,09,57,997.05
2019,02,15,09,58,997.05
2019,02,15,09,59,997.05
2019,02,15,10,00,997.48
2019,02,15,10,01,997.53
2019,02,15,10,02,997.53
2019,02,15,10,03,997.53
2019,02,15,10,04,997.53
2019,02,15,10,05,997.53
2019,02,15,10,06,997.53
2019,02,15,10,07,997.53
2019,02,15,10,08,997.53
2019,02,15,10,09,997.53
2019,02,15,10,10,997.53
2019,02,15,10,11,997.53
2019,02,15,10,12,997.53
2019,02,15,10,13,997.53
2019,02,15,10,14,997.53
2019,02,15,10,15,997.93
2019,02,15,10,16,997.97
2019,02,15,10,17,997.97
2019,02,15,10,18,997.97
2019,02,15,10,19,997.97
2019,02,15,10,20,997.97
2019,02,15,10,21,997.97
2019,02,15,10,22,997.97
2019,02,15,10,23,997.97
2019,02,15,10,24,997.97
2019,02,15,10,25,997.97
2019,02,15,10,26,997.97
2019,02,15,10,27,997.97
2019,02,15,10,28,997.97
2019,02,15,10,29,997.97
2019,02,15,10,30,998.07
2019,02,15,10,31,998.07
2019,02,15,10,32,998.07
2019,02,15,10,33,998.07
2019,02,15,10,34,998.07
2019,02,15,10,35,998.07
2019,02,15,10,36,998.07
2019,02,15,10,37,998.07
2019,02,15,10,38,998.07
2019,02,15,10,39,998.07
2019,02,15,10,40,998.07
2019,02,15,10,41,998.07
2019,02,15,10,42,998.07
2019,02,15,10,43,998.07
2019,02,15,10,44,998.07
2019,02,15,10,45,998.30
2019,02,15,10,46,998.31
2019,02,15,10,47,998.31
2019,02,15,10,48,998.31
2019,02,15,10,49,998.31
2019,02,15,10,50,998.31
2019,02,15,10,51,998.31
2019,02,15,10,52,998.31
2019,02,15,10,53,998.31
2019,02,15,10,54,998.31
2019,02,15,10,55,998.31
2019,02,15,10,56,998.31
2019,02,15,10,57,998.31
2019,02,15,10,58,998.31
2019,02,15,10,59,998.31
2019,02,15,11,00,998.57
2019,02,15,11,01,998.58
2019,02,15,11,02,998.58
2019,02,15,11,03,998.58
2019,02,15,11,04,998.58
2019,02,15,11,05,998.58
2019,02,15,11,06,998.58
2019,02,15,11,07,998.58
2019,02,15,11,08,998.58
2019,02,15,11,09,998.58
2019,02,15,11,10,998.58
2019,02,15,11,11,998.58
2019,02,15,11,12,998.58
2019,02,15,11,13,998.58
2019,02,15,11,14,998.58
2019,02,15,11,15,999.00
2019,02,15,11,16,999.02
2019,02,15,11,17,999.02
2019,02,15,11,18,999.02
2019,02,15,11,19,999.02
2019,02,15,11,20,999.02
2019,02,15,11,21,999.02
2019,02,15,11,22,999.02
2019,02,15,11,23,999.02
2019,02,15,11,24,999.02
2019,02,15,11,25,999.02
2019,02,15,11,26,999.02
2019,02,15,11,27,999.02
2019,02,15,11,28,999.02
2019,02,15,11,29,999.02
2019,02,15,11,30,999.09
2019,02,15,11,31,999.09
2019,02,15,11,32,999.09
2019,02,15,11,33,999.09
2019,02,15,11,34,999.09
2019,02,15,11,35,999.09
2019,02,15,11,36,999.09
2019,02,15,11,37,999.09
2019,02,15,11,38,999.09
2019,02,15,11,39,999.09
2019,02,15,11,40,999.09
2019,02,15,11,41,999.09
2019,02,15,11,42,999.09
2019,02,15,11,43,999.09
2019,02,15,11,44,999.09
2019,02,15,11,45,999.36
2019,02,15,11,46,999.39
2019,02,15,11,47,999.39
2019,02,15,11,48,999.39
2019,02,15,11,49,999.39
2019,02,15,11,50,999.39
2019,02,15,11,51,999.39
2019,02,15,11,52,999.39
2019,02,15,11,53,999.39
2019,02,15,11,54,999.39
2019,02,15,11,55,999.39
2019,02,15,11,56,999.39
2019,02,15,11,57,999.39
2019,02,15,11,58,999.39
2019,02,15,11,59,999.39
2019,02,15,12,00,999.55
2019,02,15,12,01,999.56
2019,02,15,12,02,999.56
2019,02,15,12,03,999.56
2019,02,15,12,04,999.56
2019,02,15,12,05,999.56
2019,02,15,12,06,999.56
2019,02,15,12,07,999.56
2019,02,15,12,08,999.56
2019,02,15,12,09,999.56
2019,02,15,12,10,999.56
2019,02,15,12,11,999.56
2019,02,15,12,12,999.56
2019,02,15,12,13,999.56
2019,02,15,12,14,999.56
2019,02,15,12,15,999.53
2019,02,15,12,16,999.53
2019,02,15,12,17,999.53
2019,02,15,12,18,999.53
2019,02,15,12,19,999.53
2019,02,15,12,20,999.53
2019,02,15,12,21,999.53
2019,02,15,12,22,999.53
2019,02,15,12,23,999.53
2019,02,15,12,24,999.53
2019,02,15,12,25,999.53
2019,02,15,12,26,999.53
2019,02,15,12,27,999.53
2019,02,15,12,28,999.53
2019,02,15,12,29,999.53
2019,02,15,12,30,999.53
2019,02,15,12,31,999.53
2019,02,15,12,32,999.53
2019,02,15,12,33,999.53
2019,02,15,12,34,999.53
2019,02,15,12,35,999.53
2019,02,15,12,36,999.53
2019,02,15,12,37,999.53
2019,02,15,12,38,999.53
2019,02,15,12,39,999.53
2019,02,15,12,40,999.53
2019,02,15,12,41,999.53
2019,02,15,12,42,999.53
2019,02,15,12,43,999.53
2019,02,15,12,44,999.53
2019,02,15,12,45,999.56
2019,02,15,12,46,999.56
2019,02,15,12,47,999.56
2019,02,15,12,48,999.56
2019,02,15,12,49,999.56
2019,02,15,12,50,999.56
2019,02,15,12,51,999.56
2019,02,15,12,52,999.56
2019,02,15,12,53,999.56
2019,02,15,12,54,999.56
2019,02,15,12,55,999.56
2019,02,15,12,56,999.56
2019,02,15,12,57,999.56
2019,02,15,12,58,999.56
2019,02,15,12,59,999.56
2019,02,15,13,00,999.66
2019,02,15,13,01,999.66
2019,02,15,13,02,999.66
2019,02,15,13,03,999.66
2019,02,15,13,04,999.66
2019,02,15,13,05,999.66
2019,02,15,13,06,999.66
2019,02,15,13,07,999.66
2019,02,15,13,08,999.66
2019,02,15,13,09,999.66
2019,02,15,13,10,999.66
2019,02,15,13,11,999.66
2019,02,15,13,12,999.66
2019,02,15,13,13,999.66
2019,02,15,13,14,999.66
2019,02,15,13,15,1000.01
2019,02,15,13,16,1000.03
2019,02,15,13,17,1000.03
2019,02,15,13,18,1000.03
2019,02,15,13,19,1000.03
2019,02,15,13,20,1000.03
2019,02,15,13,21,1000.03
2019,02,15,13,22,1000.03
2019,02,15,13,23,1000.03
2019,02,15,13,24,1000.03
2019,02,15,13,25,1000.03
2019,02,15,13,26,1000.03
2019,02,15,13,27,1000.03
2019,02,15,13,28,1000.03
2019,02,15,13,29,1000.03
2019,02,15,13,30,1000.09
2019,02,15,13,31,1000.10
2019,02,15,13,32,1000.10
2019,02,15,13,33,1000.10
2019,02,15,13,34,1000.10
2019,02,15,13,35,1000.10
2019,02,15,13,36,1000.10
2019,02,15,13,37,1000.10
2019,02,15,13,38,1000.10
2019,02,15,13,39,1000.10
2019,02,15,13,40,1000.10
2019,02,15,13,41,1000.10
2019,02,15,13,42,1000.10
2019,02,15,13,43,1000.10
2019,02,15,13,44,1000.10
2019,02,15,13,45,1000.14
2019,02,15,13,46,1000.14
2019,02,15,13,47,1000.14
2019,02,15,13,48,1000.14
2019,02,15,13,49,1000.14
2019,02,15,13,50,1000.14
2019,02,15,13,51,1000.14
2019,02,15,13,52,1000.14
2019,02,15,13,53,1000.14
2019,02,15,13,54,1000.14
2019,02,15,13,55,1000.14
2019,02,15,13,56,1000.14
2019,02,15,13,57,1000.14
2019,02,15,13,58,1000.14
2019,02,15,13,59,1000.14
2019,02,15,14,00,1000.23
2019,02,15,14,01,1000.24
2019,02,15,14,02,1000.24
2019,02,15,14,03,1000.24
2019,02,15,14,04,1000.24
2019,02,15,14,05,1000.24
2019,02,15,14,06,1000.24
2019,02,15,14,07,1000.24
2019,02,15,14,08,1000.24
2019,02,15,14,09,1000.24
2019,02,15,14,10,1000.24
2019,02,15,14,11,1000.24
2019,02,15,14,12,1000.24
2019,02,15,14,13,1000.24
2019,02,15,14,14,1000.24
2019,02,15,14,15,1000.17
2019,02,15,14,16,1000.17
2019,02,15,14,17,1000.17
2019,02,15,14,18,1000.17
2019,02,15,14,19,1000.17
2019,02,15,14,20,1000.17
2019,02,15,14,21,1000.17
2019,02,15,14,22,1000.17
2019,02,15,14,23,1000.17
2019,02,15,14,24,1000.17
2019,02,15,14,25,1000.17
2019,02,15,14,26,1000.17
2019,02,15,14,27,1000.17
2019,02,15,14,28,1000.17
2019,02,15,14,29,1000.17
2019,02,15,14,30,1000.41
2019,02,15,14,31,1000.44
2019,02,15,14,32,1000.44
2019,02,15,14,33,1000.44
2019,02,15,14,34,1000.44
2019,02,15,14,35,1000.44
2019,02,15,14,36,1000.44
2019,02,15,14,37,1000.44
2019,02,15,14,38,1000.44
2019,02,15,14,39,1000.44
2019,02,15,14,40,1000.44
2019,02,15,14,41,1000.44
2019,02,15,14,42,1000.44
2019,02,15,14,43,1000.44
2019,02,15,14,44,1000.44
2019,02,15,14,45,1000.58
2019,02,15,14,46,1000.58
2019,02,15,14,47,1000.58
2019,02,15,14,48,1000.58
2019,02,15,14,49,1000.58
2019,02,15,14,50,1000.58
2019,02,15,14,51,1000.58
2019,02,15,14,52,1000.58
2019,02,15,14,53,1000.58
2019,02,15,14,54,1000.58
2019,02,15,14,55,1000.58
2019,02,15,14,56,1000.58
2019,02,15,14,57,1000.58
2019,02,15,14,58,1000.58
2019,02,15,14,59,1000.58
2019,02,15,15,00,1000.64
2019,02,15,15,01,1000.64
2019,02,15,15,02,1000.64
2019,02,15,15,03,1000.64
2019,02,15,15,04,1000.64
2019,02,15,15,05,1000.64
2019,02,15,15,06,1000.64
2019,02,15,15,07,1000.64
2019,02,15,15,08,1000.64
2019,02,15,15,09,1000.64
2019,02,15,15,10,1000.64
2019,02,15,15,11,1000.64
2019,02,15,15,12,1000.64
2019,02,15,15,13,1000.64
2019,02,15,15,14,1000.64
2019,02,15,15,15,1000.68
2019,02,15,15,16,1000.68
2019,02,15,15,17,1000.68
2019,02,15,15,18,1000.68
2019,02,15,15,19,1000.68
2019,02,15,15,20,1000.68
2019,02,15,15,21,1000.68
2019,02,15,15,22,1000.68
2019,02,15,15,23,1000.68
2019,02,15,15,24,1000.68
2019,02,15,15,25,1000.68
2019,02,15,15,26,1000.68
2019,02,15,15,27,1000.68
2019,02,15,15,28,1000.68
2019,02,15,15,29,1000.68
2019,02,15,15,30,1000.95
2019,02,15,15,31,1000.95
2019,02,15,15,32,1000.95
2019,02,15,15,33,1000.95
2019,02,15,15,34,1000.95
2019,02,15,15,35,1000.95
2019,02,15,15,36,1000.95
2019,02,15,15,37,1000.95
2019,02,15,15,38,1000.95
2019,02,15,15,39,1000.95
2019,02,15,15,40,1000.95
2019,02,15,15,41,1000.95
2019,02,15,15,42,1000.95
2019,02,15,15,43,1000.95
2019,02,15,15,44,1000.95
2019,02,15,15,45,1001.19
2019,02,15,15,46,1001.19
2019,02,15,15,47,1001.19
2019,02,15,15,48,1001.19
2019,02,15,15,49,1001.19
2019,02,15,15,50,1001.19
2019,02,15,15,51,1001.19
2019,02,15,15,52,1001.19
2019,02,15,15,53,1001.19
2019,02,15,15,54,1001.19
2019,02,15,15,55,1001.19
2019,02,15,15,56,1001.19
2019,02,15,15,57,1001.19
2019,02,15,15,58,1001.19
2019,02,15,15,59,1001.19
2019,02,15,16,00,1001.19
2019,02,15,16,01,1001.19
2019,02,15,16,02,1001.19
2019,02,15,16,03,1001.19
2019,02,15,16,04,1001.19
2019,02,15,16,05,1001.19
2019,02,15,16,06,1001.19
2019,02,15,16,07,1001.19
2019,02,15,16,08,1001.19
2019,02,15,16,09,1001.19
2019,02,15,16,10,1001.19
2019,02,15,16,11,1001.19
2019,02,15,16,12,1001.19
2019,02,15,16,13,1001.19
2019,02,15,16,14,1001.19
2019,02,15,16,15,1001.25
2019,02,15,16,16,1001.25
2019,02,15,16,17,1001.25
2019,02,15,16,18,1001.25
2019,02,15,16,19,1001.25
2019,02,15,16,20,1001.25
2019,02,15,16,21,1001.25
2019,02,15,16,22,1001.25
2019,02,15,16,23,1001.25
2019,02,15,16,24,1001.25
2019,02,15,16,25,1001.25
2019,02,15,16,26,1001.25
2019,02,15,16,27,1001.25
2019,02,15,16,28,1001.25